M I D A S
Marine Information and Data Acquisition System
Tripno 52 of the Zeeleeuw from 2001-05-28 09:45:00 to 2001-05-28 18:25:00
Back to CruiseResearch ActivitiesStationsMapUnderway DataData graphs

EquipmentUnitsComments
TimeDGPSUTC
LatitudeDGPSDM.mWGS84
LongitudeDGPSDM.mWGS84
SpeedMeteo Stationm/sRelative wind speed
DirectionMeteo StationdegRelative wind direction
TemperatureMeteo Stationdeg CelciusAir temperature
PressureMeteo StationPaAtmospheric pressure
HumidityMeteo Station%Relative humidity
Missing or incorrect values are displayed as -999
Metereological data collected by the RV Zeeleeuw from 2001-05-28 09:45:00 to 2001-05-28 18:25:00
Time Latitude Longitude Speed Direction Temperature Pressure Humidity
2001-05-28 09:46 51°24.717 3°9.468 -999 -999 -999 -999 -999
2001-05-28 09:47 51°24.732 3°9.096 -999 -999 -999 -999 -999
2001-05-28 09:48 51°24.766 3°8.731 -999 -999 -999 -999 -999
2001-05-28 09:49 51°24.801 3°8.365 -999 -999 -999 -999 -999
2001-05-28 09:50 51°24.885 3°8.027 -999 -999 -999 -999 -999
2001-05-28 09:51 51°24.964 3°7.686 -999 -999 -999 -999 -999
2001-05-28 09:52 51°25.065 3°7.363 -999 -999 -999 -999 -999
2001-05-28 09:53 51°25.219 3°7.108 -999 -999 -999 -999 -999
2001-05-28 09:54 51°25.405 3°6.915 -999 -999 -999 -999 -999
2001-05-28 09:55 51°25.619 3°6.81 -999 -999 -999 -999 -999
2001-05-28 09:56 51°25.827 3°6.685 -999 -999 -999 -999 -999
2001-05-28 09:57 51°26.038 3°6.574 -999 -999 -999 -999 -999
2001-05-28 09:58 51°26.247 3°6.479 -999 -999 -999 -999 -999
2001-05-28 09:59 51°26.457 3°6.348 -999 -999 -999 -999 -999
2001-05-28 10:00 51°26.663 3°6.225 -999 -999 -999 -999 -999
2001-05-28 10:01 51°26.867 3°6.088 -999 -999 -999 -999 -999
2001-05-28 10:02 51°27.082 3°5.984 -999 -999 -999 -999 -999
2001-05-28 10:03 51°27.3 3°5.911 -999 -999 -999 -999 -999
2001-05-28 10:04 51°27.519 3°5.851 -999 -999 -999 -999 -999
2001-05-28 10:05 51°27.74 3°5.823 -999 -999 -999 -999 -999
2001-05-28 10:06 51°27.904 3°6.01 -999 -999 -999 -999 -999
2001-05-28 10:07 51°27.967 3°6.331 -999 -999 -999 -999 -999
2001-05-28 10:08 51°28.033 3°6.651 -999 -999 -999 -999 -999
2001-05-28 10:09 51°28.104 3°6.972 -999 -999 -999 -999 -999
2001-05-28 10:10 51°28.182 3°7.297 -999 -999 -999 -999 -999
2001-05-28 10:11 51°28.274 3°7.615 -999 -999 -999 -999 -999
2001-05-28 10:12 51°28.367 3°7.928 -999 -999 -999 -999 -999
2001-05-28 10:13 51°28.44 3°8.256 -999 -999 -999 -999 -999
2001-05-28 10:14 51°28.515 3°8.576 -999 -999 -999 -999 -999
2001-05-28 10:15 51°28.588 3°8.907 -999 -999 -999 -999 -999
2001-05-28 10:16 51°28.706 3°9.199 -999 -999 -999 -999 -999
2001-05-28 10:17 51°28.9 3°9.358 -999 -999 -999 -999 -999
2001-05-28 10:18 51°29.105 3°9.285 -999 -999 -999 -999 -999
2001-05-28 10:19 51°29.248 3°9.03 -999 -999 -999 -999 -999
2001-05-28 10:20 51°29.388 3°8.755 -999 -999 -999 -999 -999
2001-05-28 10:21 51°29.519 3°8.466 -999 -999 -999 -999 -999
2001-05-28 10:22 51°29.64 3°8.17 -999 -999 -999 -999 -999
2001-05-28 10:23 51°29.752 3°7.865 -999 -999 -999 -999 -999
2001-05-28 10:24 51°29.858 3°7.553 -999 -999 -999 -999 -999
2001-05-28 10:25 51°29.964 3°7.239 -999 -999 -999 -999 -999
2001-05-28 10:26 51°30.066 3°6.92 -999 -999 -999 -999 -999
2001-05-28 10:27 51°30.168 3°6.605 -999 -999 -999 -999 -999
2001-05-28 10:28 51°30.265 3°6.288 -999 -999 -999 -999 -999
2001-05-28 10:29 51°30.368 3°5.961 -999 -999 -999 -999 -999
2001-05-28 10:30 51°30.467 3°5.643 -999 -999 -999 -999 -999
2001-05-28 10:31 51°30.567 3°5.321 -999 -999 -999 -999 -999
2001-05-28 10:32 51°30.671 3°5 -999 -999 -999 -999 -999
2001-05-28 10:33 51°30.772 3°4.669 -999 -999 -999 -999 -999
2001-05-28 10:34 51°30.876 3°4.348 -999 -999 -999 -999 -999
2001-05-28 10:35 51°30.981 3°4.029 -999 -999 -999 -999 -999
2001-05-28 10:36 51°31.087 3°3.712 -999 -999 -999 -999 -999
2001-05-28 10:37 51°31.196 3°3.397 -999 -999 -999 -999 -999
2001-05-28 10:38 51°31.299 3°3.078 -999 -999 -999 -999 -999
2001-05-28 10:39 51°31.403 3°2.758 -999 -999 -999 -999 -999
2001-05-28 10:40 51°31.504 3°2.429 -999 -999 -999 -999 -999
2001-05-28 10:41 51°31.604 3°2.098 -999 -999 -999 -999 -999
2001-05-28 10:42 51°31.702 3°1.764 -999 -999 -999 -999 -999
2001-05-28 10:43 51°31.769 3°1.425 -999 -999 -999 -999 -999
2001-05-28 10:44 51°31.692 3°1.088 -999 -999 -999 -999 -999
2001-05-28 10:45 51°31.587 3°0.764 -999 -999 -999 -999 -999
2001-05-28 10:46 51°31.461 3°0.454 -999 -999 -999 -999 -999
2001-05-28 10:47 51°31.322 3°0.151 -999 -999 -999 -999 -999
2001-05-28 10:48 51°31.165 2°59.881 -999 -999 -999 -999 -999
2001-05-28 10:49 51°31.006 2°59.614 -999 -999 -999 -999 -999
2001-05-28 10:50 51°30.838 2°59.354 -999 -999 -999 -999 -999
2001-05-28 10:51 51°30.666 2°59.09 -999 -999 -999 -999 -999
2001-05-28 10:52 51°30.5 2°58.835 -999 -999 -999 -999 -999
2001-05-28 10:53 51°30.334 2°58.573 -999 -999 -999 -999 -999
2001-05-28 10:54 51°30.163 2°58.316 -999 -999 -999 -999 -999
2001-05-28 10:55 51°29.982 2°58.072 -999 -999 -999 -999 -999
2001-05-28 10:56 51°29.804 2°57.822 -999 -999 -999 -999 -999
2001-05-28 10:57 51°29.629 2°57.566 -999 -999 -999 -999 -999
2001-05-28 10:58 51°29.448 2°57.329 -999 -999 -999 -999 -999
2001-05-28 10:59 51°29.268 2°57.083 -999 -999 -999 -999 -999
2001-05-28 11:00 51°29.088 2°56.834 -999 -999 -999 -999 -999
2001-05-28 11:01 51°28.908 2°56.598 -999 -999 -999 -999 -999
2001-05-28 11:02 51°28.73 2°56.345 -999 -999 -999 -999 -999
2001-05-28 11:03 51°28.548 2°56.092 -999 -999 -999 -999 -999
2001-05-28 11:04 51°28.367 2°55.848 -999 -999 -999 -999 -999
2001-05-28 11:05 51°28.186 2°55.597 -999 -999 -999 -999 -999
2001-05-28 11:06 51°28.009 2°55.342 -999 -999 -999 -999 -999
2001-05-28 11:07 51°27.878 2°55.018 -999 -999 -999 -999 -999
2001-05-28 11:08 51°27.728 2°54.716 -999 -999 -999 -999 -999
2001-05-28 11:09 51°27.612 2°54.381 -999 -999 -999 -999 -999
2001-05-28 11:10 51°27.664 2°54.059 -999 -999 -999 -999 -999
2001-05-28 11:11 51°27.825 2°53.822 -999 -999 -999 -999 -999
2001-05-28 11:12 51°27.985 2°53.59 -999 -999 -999 -999 -999
2001-05-28 11:13 51°28.149 2°53.368 -999 -999 -999 -999 -999
2001-05-28 11:14 51°28.334 2°53.191 -999 -999 -999 -999 -999
2001-05-28 11:15 51°28.511 2°52.993 -999 -999 -999 -999 -999
2001-05-28 11:16 51°28.705 2°52.851 -999 -999 -999 -999 -999
2001-05-28 11:17 51°28.896 2°52.686 -999 -999 -999 -999 -999
2001-05-28 11:18 51°29.091 2°52.536 -999 -999 -999 -999 -999
2001-05-28 11:19 51°29.264 2°52.331 -999 -999 -999 -999 -999
2001-05-28 11:20 51°29.353 2°52.001 -999 -999 -999 -999 -999
2001-05-28 11:21 51°29.336 2°51.639 -999 -999 -999 -999 -999
2001-05-28 11:22 51°29.243 2°51.289 -999 -999 -999 -999 -999
2001-05-28 11:23 51°29.148 2°50.941 -999 -999 -999 -999 -999
2001-05-28 11:24 51°29.048 2°50.602 -999 -999 -999 -999 -999
2001-05-28 11:25 51°28.971 2°50.244 -999 -999 -999 -999 -999
2001-05-28 11:26 51°28.881 2°49.893 -999 -999 -999 -999 -999
2001-05-28 11:27 51°28.794 2°49.534 -999 -999 -999 -999 -999
2001-05-28 11:28 51°28.641 2°49.256 -999 -999 -999 -999 -999
2001-05-28 11:29 51°28.439 2°49.085 -999 -999 -999 -999 -999
2001-05-28 11:30 51°28.214 2°49.035 -999 -999 -999 -999 -999
2001-05-28 11:31 51°27.986 2°49.016 -999 -999 -999 -999 -999
2001-05-28 11:32 51°27.769 2°49.099 -999 -999 -999 -999 -999
2001-05-28 11:33 51°27.555 2°49.223 -999 -999 -999 -999 -999
2001-05-28 11:34 51°27.338 2°49.328 -999 -999 -999 -999 -999
2001-05-28 11:35 51°27.114 2°49.414 -999 -999 -999 -999 -999
2001-05-28 11:36 51°26.908 2°49.568 -999 -999 -999 -999 -999
2001-05-28 11:37 51°26.703 2°49.695 -999 -999 -999 -999 -999
2001-05-28 11:38 51°26.576 2°49.748 -999 -999 -999 -999 -999
2001-05-28 11:39 51°26.506 2°49.775 -999 -999 -999 -999 -999
2001-05-28 11:40 51°26.461 2°49.785 -999 -999 -999 -999 -999
2001-05-28 11:41 51°26.43 2°49.79 -999 -999 -999 -999 -999
2001-05-28 11:42 51°26.407 2°49.79 -999 -999 -999 -999 -999
2001-05-28 11:43 51°26.389 2°49.79 -999 -999 -999 -999 -999
2001-05-28 11:44 51°26.377 2°49.792 -999 -999 -999 -999 -999
2001-05-28 11:45 51°26.365 2°49.794 -999 -999 -999 -999 -999
2001-05-28 11:46 51°26.357 2°49.794 -999 -999 -999 -999 -999
2001-05-28 11:47 51°26.349 2°49.795 -999 -999 -999 -999 -999
2001-05-28 11:48 51°26.343 2°49.797 -999 -999 -999 -999 -999
2001-05-28 11:49 51°26.335 2°49.796 -999 -999 -999 -999 -999
2001-05-28 11:50 51°26.328 2°49.795 -999 -999 -999 -999 -999
2001-05-28 11:51 51°26.32 2°49.796 -999 -999 -999 -999 -999
2001-05-28 11:52 51°26.312 2°49.798 -999 -999 -999 -999 -999
2001-05-28 11:53 51°26.302 2°49.8 -999 -999 -999 -999 -999
2001-05-28 11:54 51°26.285 2°49.807 -999 -999 -999 -999 -999
2001-05-28 11:55 51°26.207 2°49.834 -999 -999 -999 -999 -999
2001-05-28 11:56 51°26.038 2°49.864 -999 -999 -999 -999 -999
2001-05-28 11:57 51°25.833 2°49.782 -999 -999 -999 -999 -999
2001-05-28 11:58 51°25.718 2°49.461 -999 -999 -999 -999 -999
2001-05-28 11:59 51°25.6 2°49.126 -999 -999 -999 -999 -999
2001-05-28 12:00 51°25.486 2°48.783 -999 -999 -999 -999 -999
2001-05-28 12:01 51°25.37 2°48.452 -999 -999 -999 -999 -999
2001-05-28 12:02 51°25.257 2°48.117 -999 -999 -999 -999 -999
2001-05-28 12:03 51°25.141 2°47.775 -999 -999 -999 -999 -999
2001-05-28 12:04 51°25.036 2°47.432 -999 -999 -999 -999 -999
2001-05-28 12:05 51°24.92 2°47.105 -999 -999 -999 -999 -999
2001-05-28 12:06 51°24.834 2°46.771 -999 -999 -999 -999 -999
2001-05-28 12:07 51°24.934 2°46.479 -999 -999 -999 -999 -999
2001-05-28 12:08 51°25.126 2°46.338 -999 -999 -999 -999 -999
2001-05-28 12:09 51°25.318 2°46.184 -999 -999 -999 -999 -999
2001-05-28 12:10 51°25.513 2°46.046 -999 -999 -999 -999 -999
2001-05-28 12:11 51°25.709 2°45.914 -999 -999 -999 -999 -999
2001-05-28 12:12 51°25.905 2°45.786 -999 -999 -999 -999 -999
2001-05-28 12:13 51°26.103 2°45.653 -999 -999 -999 -999 -999
2001-05-28 12:14 51°26.301 2°45.511 -999 -999 -999 -999 -999
2001-05-28 12:15 51°26.492 2°45.376 -999 -999 -999 -999 -999
2001-05-28 12:16 51°26.686 2°45.237 -999 -999 -999 -999 -999
2001-05-28 12:17 51°26.883 2°45.105 -999 -999 -999 -999 -999
2001-05-28 12:18 51°27.085 2°44.984 -999 -999 -999 -999 -999
2001-05-28 12:19 51°27.284 2°44.847 -999 -999 -999 -999 -999
2001-05-28 12:20 51°27.47 2°44.675 -999 -999 -999 -999 -999
2001-05-28 12:21 51°27.549 2°44.365 -999 -999 -999 -999 -999
2001-05-28 12:22 51°27.435 2°44.057 -999 -999 -999 -999 -999
2001-05-28 12:23 51°27.328 2°43.736 -999 -999 -999 -999 -999
2001-05-28 12:24 51°27.224 2°43.419 -999 -999 -999 -999 -999
2001-05-28 12:25 51°27.105 2°43.097 -999 -999 -999 -999 -999
2001-05-28 12:26 51°26.978 2°42.778 -999 -999 -999 -999 -999
2001-05-28 12:27 51°26.854 2°42.467 -999 -999 -999 -999 -999
2001-05-28 12:28 51°26.737 2°42.141 -999 -999 -999 -999 -999
2001-05-28 12:29 51°26.622 2°41.805 -999 -999 -999 -999 -999
2001-05-28 12:30 51°26.51 2°41.481 -999 -999 -999 -999 -999
2001-05-28 12:31 51°26.382 2°41.174 -999 -999 -999 -999 -999
2001-05-28 12:32 51°26.163 2°41.02 -999 -999 -999 -999 -999
2001-05-28 12:33 51°25.938 2°40.976 -999 -999 -999 -999 -999
2001-05-28 12:34 51°25.712 2°41.055 -999 -999 -999 -999 -999
2001-05-28 12:35 51°25.49 2°41.137 -999 -999 -999 -999 -999
2001-05-28 12:36 51°25.267 2°41.244 -999 -999 -999 -999 -999
2001-05-28 12:37 51°25.05 2°41.36 -999 -999 -999 -999 -999
2001-05-28 12:38 51°24.839 2°41.485 -999 -999 -999 -999 -999
2001-05-28 12:39 51°24.623 2°41.62 -999 -999 -999 -999 -999
2001-05-28 12:40 51°24.428 2°41.794 -999 -999 -999 -999 -999
2001-05-28 12:41 51°24.211 2°41.931 -999 -999 -999 -999 -999
2001-05-28 12:42 51°23.995 2°42.052 -999 -999 -999 -999 -999
2001-05-28 12:43 51°23.769 2°42.081 -999 -999 -999 -999 -999
2001-05-28 12:44 51°23.542 2°42.023 -999 -999 -999 -999 -999
2001-05-28 12:45 51°23.322 2°41.935 -999 -999 -999 -999 -999
2001-05-28 12:46 51°23.095 2°41.84 -999 -999 -999 -999 -999
2001-05-28 12:47 51°22.87 2°41.758 -999 -999 -999 -999 -999
2001-05-28 12:48 51°22.66 2°41.631 -999 -999 -999 -999 -999
2001-05-28 12:49 51°22.467 2°41.429 -999 -999 -999 -999 -999
2001-05-28 12:50 51°22.275 2°41.203 -999 -999 -999 -999 -999
2001-05-28 12:51 51°22.086 2°40.993 -999 -999 -999 -999 -999
2001-05-28 12:52 51°21.886 2°40.784 -999 -999 -999 -999 -999
2001-05-28 12:53 51°21.696 2°40.585 -999 -999 -999 -999 -999
2001-05-28 12:54 51°21.498 2°40.375 -999 -999 -999 -999 -999
2001-05-28 12:55 51°21.305 2°40.161 -999 -999 -999 -999 -999
2001-05-28 12:56 51°21.121 2°39.945 -999 -999 -999 -999 -999
2001-05-28 12:57 51°20.924 2°39.731 -999 -999 -999 -999 -999
2001-05-28 12:58 51°20.737 2°39.499 -999 -999 -999 -999 -999
2001-05-28 12:59 51°20.561 2°39.249 -999 -999 -999 -999 -999
2001-05-28 13:00 51°20.403 2°38.979 -999 -999 -999 -999 -999
2001-05-28 13:01 51°20.253 2°38.684 -999 -999 -999 -999 -999
2001-05-28 13:02 51°20.11 2°38.386 -999 -999 -999 -999 -999
2001-05-28 13:03 51°19.953 2°38.117 -999 -999 -999 -999 -999
2001-05-28 13:04 51°19.797 2°37.839 -999 -999 -999 -999 -999
2001-05-28 13:05 51°19.658 2°37.528 -999 -999 -999 -999 -999
2001-05-28 13:06 51°19.501 2°37.25 -999 -999 -999 -999 -999
2001-05-28 13:07 51°19.333 2°36.984 -999 -999 -999 -999 -999
2001-05-28 13:08 51°19.189 2°36.684 -999 -999 -999 -999 -999
2001-05-28 13:09 51°19.042 2°36.389 -999 -999 -999 -999 -999
2001-05-28 13:10 51°18.877 2°36.126 -999 -999 -999 -999 -999
2001-05-28 13:11 51°18.725 2°35.827 -999 -999 -999 -999 -999
2001-05-28 13:12 51°18.58 2°35.524 -999 -999 -999 -999 -999
2001-05-28 13:13 51°18.411 2°35.255 -999 -999 -999 -999 -999
2001-05-28 13:14 51°18.254 2°34.977 -999 -999 -999 -999 -999
2001-05-28 13:15 51°18.111 2°34.686 -999 -999 -999 -999 -999
2001-05-28 13:16 51°17.943 2°34.415 -999 -999 -999 -999 -999
2001-05-28 13:17 51°17.786 2°34.141 -999 -999 -999 -999 -999
2001-05-28 13:18 51°17.641 2°33.852 -999 -999 -999 -999 -999
2001-05-28 13:19 51°17.468 2°33.592 -999 -999 -999 -999 -999
2001-05-28 13:20 51°17.306 2°33.332 -999 -999 -999 -999 -999
2001-05-28 13:21 51°17.156 2°33.05 -999 -999 -999 -999 -999
2001-05-28 13:22 51°16.986 2°32.804 -999 -999 -999 -999 -999
2001-05-28 13:23 51°16.82 2°32.553 -999 -999 -999 -999 -999
2001-05-28 13:24 51°16.672 2°32.281 -999 -999 -999 -999 -999
2001-05-28 13:25 51°16.503 2°32.036 -999 -999 -999 -999 -999
2001-05-28 13:26 51°16.343 2°31.787 -999 -999 -999 -999 -999
2001-05-28 13:27 51°16.199 2°31.514 -999 -999 -999 -999 -999
2001-05-28 13:28 51°16.035 2°31.279 -999 -999 -999 -999 -999
2001-05-28 13:29 51°15.873 2°31.046 -999 -999 -999 -999 -999
2001-05-28 13:30 51°15.722 2°30.775 -999 -999 -999 -999 -999
2001-05-28 13:31 51°15.561 2°30.533 -999 -999 -999 -999 -999
2001-05-28 13:32 51°15.394 2°30.296 -999 -999 -999 -999 -999
2001-05-28 13:33 51°15.241 2°30.028 -999 -999 -999 -999 -999
2001-05-28 13:34 51°15.08 2°29.774 -999 -999 -999 -999 -999
2001-05-28 13:35 51°14.908 2°29.541 -999 -999 -999 -999 -999
2001-05-28 13:36 51°14.766 2°29.27 -999 -999 -999 -999 -999
2001-05-28 13:37 51°14.61 2°28.999 -999 -999 -999 -999 -999
2001-05-28 13:38 51°14.429 2°28.785 -999 -999 -999 -999 -999
2001-05-28 13:39 51°14.273 2°28.526 -999 -999 -999 -999 -999
2001-05-28 13:40 51°14.132 2°28.245 -999 -999 -999 -999 -999
2001-05-28 13:41 51°13.954 2°28.018 -999 -999 -999 -999 -999
2001-05-28 13:42 51°13.786 2°27.784 -999 -999 -999 -999 -999
2001-05-28 13:43 51°13.647 2°27.503 -999 -999 -999 -999 -999
2001-05-28 13:44 51°13.475 2°27.27 -999 -999 -999 -999 -999
2001-05-28 13:45 51°13.309 2°27.033 -999 -999 -999 -999 -999
2001-05-28 13:46 51°13.168 2°26.75 -999 -999 -999 -999 -999
2001-05-28 13:47 51°12.998 2°26.518 -999 -999 -999 -999 -999
2001-05-28 13:48 51°12.825 2°26.29 -999 -999 -999 -999 -999
2001-05-28 13:49 51°12.683 2°26.015 -999 -999 -999 -999 -999
2001-05-28 13:50 51°12.504 2°25.804 -999 -999 -999 -999 -999
2001-05-28 13:51 51°12.306 2°25.64 -999 -999 -999 -999 -999
2001-05-28 13:52 51°12.108 2°25.475 -999 -999 -999 -999 -999
2001-05-28 13:53 51°11.891 2°25.397 -999 -999 -999 -999 -999
2001-05-28 13:54 51°11.666 2°25.431 -999 -999 -999 -999 -999
2001-05-28 13:55 51°11.455 2°25.564 -999 -999 -999 -999 -999
2001-05-28 13:56 51°11.28 2°25.805 -999 -999 -999 -999 -999
2001-05-28 13:57 51°11.124 2°26.086 -999 -999 -999 -999 -999
2001-05-28 13:58 51°11.089 2°26.457 -999 -999 -999 -999 -999
2001-05-28 13:59 51°11.103 2°26.844 -999 -999 -999 -999 -999
2001-05-28 14:00 51°11.095 2°27.22 -999 -999 -999 -999 -999
2001-05-28 14:01 51°11.096 2°27.596 -999 -999 -999 -999 -999
2001-05-28 14:02 51°11.12 2°27.965 -999 -999 -999 -999 -999
2001-05-28 14:03 51°11.201 2°28.309 -999 -999 -999 -999 -999
2001-05-28 14:04 51°11.291 2°28.645 -999 -999 -999 -999 -999
2001-05-28 14:05 51°11.387 2°28.981 -999 -999 -999 -999 -999
2001-05-28 14:06 51°11.493 2°29.311 -999 -999 -999 -999 -999
2001-05-28 14:07 51°11.593 2°29.649 -999 -999 -999 -999 -999
2001-05-28 14:08 51°11.692 2°29.982 -999 -999 -999 -999 -999
2001-05-28 14:09 51°11.803 2°30.303 -999 -999 -999 -999 -999
2001-05-28 14:10 51°11.911 2°30.626 -999 -999 -999 -999 -999
2001-05-28 14:11 51°12.012 2°30.954 -999 -999 -999 -999 -999
2001-05-28 14:12 51°12.119 2°31.276 -999 -999 -999 -999 -999
2001-05-28 14:13 51°12.22 2°31.602 -999 -999 -999 -999 -999
2001-05-28 14:14 51°12.32 2°31.933 -999 -999 -999 -999 -999
2001-05-28 14:15 51°12.413 2°32.278 -999 -999 -999 -999 -999
2001-05-28 14:16 51°12.52 2°32.612 -999 -999 -999 -999 -999
2001-05-28 14:17 51°12.617 2°32.955 -999 -999 -999 -999 -999
2001-05-28 14:18 51°12.716 2°33.296 -999 -999 -999 -999 -999
2001-05-28 14:19 51°12.819 2°33.634 -999 -999 -999 -999 -999
2001-05-28 14:20 51°12.927 2°33.973 -999 -999 -999 -999 -999
2001-05-28 14:21 51°13.038 2°34.306 -999 -999 -999 -999 -999
2001-05-28 14:22 51°13.149 2°34.643 -999 -999 -999 -999 -999
2001-05-28 14:23 51°13.24 2°34.992 -999 -999 -999 -999 -999
2001-05-28 14:24 51°13.343 2°35.338 -999 -999 -999 -999 -999
2001-05-28 14:25 51°13.44 2°35.683 -999 -999 -999 -999 -999
2001-05-28 14:26 51°13.546 2°36.019 -999 -999 -999 -999 -999
2001-05-28 14:27 51°13.656 2°36.357 -999 -999 -999 -999 -999
2001-05-28 14:28 51°13.752 2°36.7 -999 -999 -999 -999 -999
2001-05-28 14:29 51°13.832 2°37.053 -999 -999 -999 -999 -999
2001-05-28 14:30 51°13.928 2°37.4 -999 -999 -999 -999 -999
2001-05-28 14:31 51°14.02 2°37.742 -999 -999 -999 -999 -999
2001-05-28 14:32 51°14.107 2°38.083 -999 -999 -999 -999 -999
2001-05-28 14:33 51°14.141 2°38.45 -999 -999 -999 -999 -999
2001-05-28 14:34 51°14.137 2°38.818 -999 -999 -999 -999 -999
2001-05-28 14:35 51°14.027 2°39.137 -999 -999 -999 -999 -999
2001-05-28 14:36 51°13.837 2°39.097 -999 -999 -999 -999 -999
2001-05-28 14:37 51°13.683 2°38.875 -999 -999 -999 -999 -999
2001-05-28 14:38 51°13.523 2°38.663 -999 -999 -999 -999 -999
2001-05-28 14:39 51°13.357 2°38.463 -999 -999 -999 -999 -999
2001-05-28 14:40 51°13.197 2°38.275 -999 -999 -999 -999 -999
2001-05-28 14:41 51°13.031 2°38.095 -999 -999 -999 -999 -999
2001-05-28 14:42 51°12.868 2°37.91 -999 -999 -999 -999 -999
2001-05-28 14:43 51°12.704 2°37.723 -999 -999 -999 -999 -999
2001-05-28 14:44 51°12.543 2°37.535 -999 -999 -999 -999 -999
2001-05-28 14:45 51°12.377 2°37.36 -999 -999 -999 -999 -999
2001-05-28 14:46 51°12.207 2°37.187 -999 -999 -999 -999 -999
2001-05-28 14:47 51°12.032 2°37.028 -999 -999 -999 -999 -999
2001-05-28 14:48 51°11.866 2°36.847 -999 -999 -999 -999 -999
2001-05-28 14:49 51°11.712 2°36.647 -999 -999 -999 -999 -999
2001-05-28 14:50 51°11.544 2°36.467 -999 -999 -999 -999 -999
2001-05-28 14:51 51°11.363 2°36.321 -999 -999 -999 -999 -999
2001-05-28 14:52 51°11.179 2°36.187 -999 -999 -999 -999 -999
2001-05-28 14:53 51°10.992 2°36.063 -999 -999 -999 -999 -999
2001-05-28 14:54 51°10.803 2°35.951 -999 -999 -999 -999 -999
2001-05-28 14:55 51°10.606 2°35.876 -999 -999 -999 -999 -999
2001-05-28 14:56 51°10.406 2°35.816 -999 -999 -999 -999 -999
2001-05-28 14:57 51°10.201 2°35.804 -999 -999 -999 -999 -999
2001-05-28 14:58 51°10.011 2°35.949 -999 -999 -999 -999 -999
2001-05-28 14:59 51°9.907 2°36.289 -999 -999 -999 -999 -999
2001-05-28 15:00 51°9.827 2°36.654 -999 -999 -999 -999 -999
2001-05-28 15:01 51°9.75 2°37.022 -999 -999 -999 -999 -999
2001-05-28 15:02 51°9.727 2°37.417 -999 -999 -999 -999 -999
2001-05-28 15:03 51°9.754 2°37.813 -999 -999 -999 -999 -999
2001-05-28 15:04 51°9.794 2°38.21 -999 -999 -999 -999 -999
2001-05-28 15:05 51°9.837 2°38.602 -999 -999 -999 -999 -999
2001-05-28 15:06 51°9.917 2°38.977 -999 -999 -999 -999 -999
2001-05-28 15:07 51°9.994 2°39.354 -999 -999 -999 -999 -999
2001-05-28 15:08 51°10.076 2°39.727 -999 -999 -999 -999 -999
2001-05-28 15:09 51°10.162 2°40.099 -999 -999 -999 -999 -999
2001-05-28 15:10 51°10.25 2°40.479 -999 -999 -999 -999 -999
2001-05-28 15:11 51°10.326 2°40.871 -999 -999 -999 -999 -999
2001-05-28 15:12 51°10.412 2°41.261 -999 -999 -999 -999 -999
2001-05-28 15:13 51°10.5 2°41.647 -999 -999 -999 -999 -999
2001-05-28 15:14 51°10.591 2°42.031 -999 -999 -999 -999 -999
2001-05-28 15:15 51°10.672 2°42.423 -999 -999 -999 -999 -999
2001-05-28 15:16 51°10.748 2°42.815 -999 -999 -999 -999 -999
2001-05-28 15:17 51°10.839 2°43.197 -999 -999 -999 -999 -999
2001-05-28 15:18 51°10.924 2°43.579 -999 -999 -999 -999 -999
2001-05-28 15:19 51°11.021 2°43.955 -999 -999 -999 -999 -999
2001-05-28 15:20 51°11.121 2°44.324 -999 -999 -999 -999 -999
2001-05-28 15:21 51°11.228 2°44.694 -999 -999 -999 -999 -999
2001-05-28 15:22 51°11.337 2°45.06 -999 -999 -999 -999 -999
2001-05-28 15:23 51°11.451 2°45.424 -999 -999 -999 -999 -999
2001-05-28 15:24 51°11.568 2°45.783 -999 -999 -999 -999 -999
2001-05-28 15:25 51°11.684 2°46.147 -999 -999 -999 -999 -999
2001-05-28 15:26 51°11.802 2°46.502 -999 -999 -999 -999 -999
2001-05-28 15:27 51°11.913 2°46.861 -999 -999 -999 -999 -999
2001-05-28 15:28 51°12.025 2°47.224 -999 -999 -999 -999 -999
2001-05-28 15:29 51°12.138 2°47.587 -999 -999 -999 -999 -999
2001-05-28 15:30 51°12.258 2°47.953 -999 -999 -999 -999 -999
2001-05-28 15:31 51°12.38 2°48.311 -999 -999 -999 -999 -999
2001-05-28 15:32 51°12.513 2°48.663 -999 -999 -999 -999 -999
2001-05-28 15:33 51°12.649 2°49.007 -999 -999 -999 -999 -999
2001-05-28 15:34 51°12.784 2°49.353 -999 -999 -999 -999 -999
2001-05-28 15:35 51°12.909 2°49.71 -999 -999 -999 -999 -999
2001-05-28 15:36 51°13.037 2°50.064 -999 -999 -999 -999 -999
2001-05-28 15:37 51°13.159 2°50.426 -999 -999 -999 -999 -999
2001-05-28 15:38 51°13.281 2°50.789 -999 -999 -999 -999 -999
2001-05-28 15:39 51°13.405 2°51.153 -999 -999 -999 -999 -999
2001-05-28 15:40 51°13.535 2°51.504 -999 -999 -999 -999 -999
2001-05-28 15:41 51°13.662 2°51.858 -999 -999 -999 -999 -999
2001-05-28 15:42 51°13.785 2°52.218 -999 -999 -999 -999 -999
2001-05-28 15:43 51°13.908 2°52.577 -999 -999 -999 -999 -999
2001-05-28 15:44 51°14.029 2°52.933 -999 -999 -999 -999 -999
2001-05-28 15:45 51°14.123 2°53.307 -999 -999 -999 -999 -999
2001-05-28 15:46 51°14.2 2°53.683 -999 -999 -999 -999 -999
2001-05-28 15:47 51°14.272 2°54.065 -999 -999 -999 -999 -999
2001-05-28 15:48 51°14.323 2°54.461 -999 -999 -999 -999 -999
2001-05-28 15:49 51°14.352 2°54.848 -999 -999 -999 -999 -999
2001-05-28 15:50 51°14.301 2°55.18 -999 -999 -999 -999 -999
2001-05-28 15:51 51°14.192 2°55.347 -999 -999 -999 -999 -999
2001-05-28 15:52 51°14.097 2°55.435 -999 -999 -999 -999 -999
2001-05-28 15:53 51°14.008 2°55.499 -999 -999 -999 -999 -999
2001-05-28 15:54 51°13.927 2°55.556 -999 -999 -999 -999 -999
2001-05-28 15:55 51°13.857 2°55.6 -999 -999 -999 -999 -999
2001-05-28 15:56 51°13.794 2°55.649 -999 -999 -999 -999 -999
2001-05-28 15:57 51°13.747 2°55.719 -999 -999 -999 -999 -999
2001-05-28 15:58 51°13.719 2°55.786 -999 -999 -999 -999 -999
2001-05-28 15:59 51°13.701 2°55.849 -999 -999 -999 -999 -999
2001-05-28 16:00 51°13.684 2°55.905 -999 -999 -999 -999 -999
2001-05-28 16:01 51°13.677 2°55.926 -999 -999 -999 -999 -999
2001-05-28 16:02 51°13.678 2°55.925 -999 -999 -999 -999 -999
2001-05-28 16:03 51°13.679 2°55.924 -999 -999 -999 -999 -999
2001-05-28 16:04 51°13.678 2°55.924 -999 -999 -999 -999 -999
2001-05-28 16:05 51°13.678 2°55.923 -999 -999 -999 -999 -999
2001-05-28 16:06 51°13.678 2°55.923 -999 -999 -999 -999 -999